Formigueres, France 16 day weather forecast

Slopes altitude range 1750 m - 2400m

Number of lifts: 7 Pistes: 22km

In some cases the lift and piste totals shown are for the ski domain (e.g. Three Valleys) rather than individual resort (e.g. Courchevel)

Overview

The 16 day weather forecast is fully updated 4 times every day.

    • Sun 16 JUN 2019
    • Sun 16
    • 8C 18C
    • Mon 17 JUN 2019
    • Mon 17
    • 11C 19C
    • Tue 18 JUN 2019
    • Tue 18
    • 12C 20C
    • Wed 19 JUN 2019
    • Wed 19
    • 13C 19C
    • Thu 20 JUN 2019
    • Thu 20
    • 12C 19C
    • Fri 21 JUN 2019
    • Fri 21
    • 10C 13C
    • Sat 22 JUN 2019
    • Sat 22
    • 9C 18C
    • Sun 23 JUN 2019
    • Sun 23
    • 12C 20C
    • Mon 24 JUN 2019
    • Mon 24
    • 19C 30C
    • Tue 25 JUN 2019
    • Tue 25
    • 17C 22C
    • Wed 26 JUN 2019
    • Wed 26
    • 16C 18C
    • Thu 27 JUN 2019
    • Thu 27
    • 18C 20C
    • Fri 28 JUN 2019
    • Fri 28
    • 24C 26C
    • Sat 29 JUN 2019
    • Sat 29
    • 24C 29C
    • Sun 30 JUN 2019
    • Sun 30
    • 25C 30C
    • Mon 01 JUL 2019
    • Mon 01
    • 19C 23C

Date:

Time Type 0°C level Temp Chill Snow Cloud Speed Gust Dir Press
12:00 3628m 18°C 18_4 0cm 0% 4mph 4mph 1019mB
15:00 3500m 18°C 18_5 0cm 0% 5mph 6mph 1017mB
18:00 3562m 18°C 18_2 0cm 27% 2mph 5mph 1017mB
21:00 3821m 9°C 9_2 0cm 91% 2mph 2mph 1019mB
0:00 3726m 8°C 8_2 0cm 95% 2mph 2mph 1018mB
3:00 3771m 7°C 7_1 0cm 100% 1mph 2mph 1017mB
6:00 3542m 7°C 7_1 0cm 92% 1mph 2mph 1018mB
9:00 3496m 11°C 11_1 0cm 53% 1mph 2mph 1017mB
12:00 3541m 19°C 19_2 0cm 33% 2mph 3mph 1016mB
15:00 3586m 18°C 18_3 0cm 100% 3mph 4mph 1014mB
18:00 3633m 18°C 18_2 0cm 62% 2mph 3mph 1014mB
21:00 3903m 9°C 9_2 0cm 59% 2mph 3mph 1016mB
0:00 3820m 8°C 8_2 0cm 47% 2mph 3mph 1015mB
3:00 3761m 8°C 8_2 0cm 99% 2mph 3mph 1014mB
6:00 3731m 8°C 8_2 0cm 78% 2mph 3mph 1014mB
9:00 3723m 12°C 12_4 0cm 55% 4mph 6mph 1014mB
12:00 3713m 20°C 20_10 0cm 31% 10mph 14mph 1013mB
15:00 3711m 20°C 20_13 0cm 7% 13mph 18mph 1012mB
18:00 3879m 20°C 20_6 0cm 5% 6mph 10mph 1011mB
21:00 3893m 10°C 10_3 0cm 0% 3mph 4mph 1012mB
0:00 3775m 9°C 9_2 0cm 0% 2mph 3mph 1013mB
3:00 3719m 8°C 8_1 0cm 8% 1mph 3mph 1012mB
6:00 3903m 8°C 8_2 0cm 23% 2mph 2mph 1013mB
9:00 3838m 13°C 13_7 0cm 3% 7mph 13mph 1013mB
12:00 3669m 19°C 19_10 0cm 22% 10mph 17mph 1012mB
15:00 3691m 19°C 19_10 0cm 66% 10mph 14mph 1011mB
18:00 3951m 19°C 19_4 0cm 65% 4mph 8mph 1011mB
21:00 4268m 10°C 10_1 0cm 100% 1mph 2mph 1013mB
0:00 3557m 9°C 9_1 0cm 51% 1mph 2mph 1013mB
3:00 3504m 9°C 9_3 0cm 100% 3mph 4mph 1012mB
6:00 3431m 8°C 8_3 0cm 79% 3mph 4mph 1014mB
9:00 3406m 12°C 12_8 0cm 0% 8mph 17mph 1014mB
12:00 3548m 19°C 19_15 0cm 5% 15mph 23mph 1014mB
15:00 3586m 19°C 19_11 0cm 50% 11mph 17mph 1013mB
18:00 3603m 19°C 19_1 0cm 33% 1mph 4mph 1013mB
21:00 3647m 9°C 9_4 0cm 42% 4mph 5mph 1015mB
0:00 3551m 8°C 8_4 0cm 57% 4mph 4mph 1015mB
3:00 3524m 8°C 8_1 0cm 100% 1mph 2mph 1015mB
6:00 3455m 8°C 8_2 0cm 100% 2mph 3mph 1016mB
9:00 3435m 10°C 10_4 0cm 100% 4mph 3mph 1016mB
12:00 3452m 13°C 13_3 0cm 92% 3mph 5mph 1016mB
15:00 3488m 14°C 14_1 0cm 89% 1mph 3mph 1015mB
18:00 3503m 14°C 14_2 0cm 64% 2mph 2mph 1015mB
21:00 3635m 7°C 7_3 0cm 15% 3mph 4mph 1017mB
0:00 3637m 7°C 7_1 0cm 21% 1mph 3mph 1017mB
3:00 3579m 6°C 6_1 0cm 5% 1mph 2mph 1016mB
6:00 3527m 6°C 6_2 0cm 7% 2mph 2mph 1017mB
9:00 3489m 9°C 9_5 0cm 34% 5mph 5mph 1016mB
12:00 3495m 18°C 18_7 0cm 50% 7mph 11mph 1015mB
15:00 3550m 17°C 17_6 0cm 100% 6mph 8mph 1014mB
18:00 3604m 17°C 17_4 0cm 97% 4mph 6mph 1015mB
21:00 3650m 8°C 8_1 0cm 5% 1mph 2mph 1016mB
0:00 3645m 8°C 8_1 0cm 24% 1mph 2mph 1016mB
3:00 3823m 8°C 8_2 0cm 100% 2mph 3mph 1016mB
6:00 4101m 8°C 8_1 0cm 100% 1mph 2mph 1016mB
9:00 4147m 12°C 12_5 0cm 100% 5mph 7mph 1016mB
12:00 3968m 20°C 20_10 0cm 99% 10mph 14mph 1015mB
15:00 4480m 20°C 20_10 0cm 99% 10mph 13mph 1014mB
18:00 4614m 20°C 20_6 0cm 100% 6mph 10mph 1014mB
21:00 4600m 18°C 18_4 0cm 100% 4mph 5mph 1016mB
0:00 4682m 18°C 18_4 0cm 100% 4mph 5mph 1015mB
3:00 4771m 17°C 17_5 0cm 63% 5mph 6mph 1014mB
6:00 4779m 17°C 17_5 0cm 31% 5mph 7mph 1014mB
9:00 4763m 19°C 19_7 0cm 0% 7mph 10mph 1014mB
12:00 4687m 30°C 30_9 0cm 0% 9mph 12mph 1013mB
15:00 4905m 31°C 31_10 0cm 1% 10mph 14mph 1012mB
18:00 4953m 31°C 31_7 0cm 1% 7mph 13mph 1013mB
21:00 4987m 18°C 18_4 0cm 0% 4mph 5mph 1016mB
0:00 4883m 15°C 15_1 0cm 0% 1mph 2mph 1017mB
3:00 4758m 15°C 15_3 0cm 54% 3mph 10mph 1017mB
6:00 4649m 15°C 15_7 0cm 64% 7mph 14mph 1018mB
9:00 4670m 17°C 17_11 0cm 36% 11mph 14mph 1018mB
12:00 4672m 22°C 22_11 0cm 26% 11mph 14mph 1018mB
15:00 4657m 23°C 23_13 0cm 76% 13mph 16mph 1017mB
18:00 4568m 23°C 23_11 0cm 88% 11mph 18mph 1018mB
21:00 4516m 16°C 16_10 0cm 100% 10mph 20mph 1020mB
0:00 4182m 15°C 15_11 0cm 100% 11mph 20mph 1020mB
3:00 3877m 12°C 12_12 0cm 98% 12mph 22mph 1020mB
6:00 3621m 11°C 11_10 0cm 99% 10mph 23mph 1022mB
Afternoon 1.10417mm 0 3954m 18°C 18_12 0cm 74% 12mph 22mph 1021mB
Morning 0.0416667mm 0 4279m 10°C 10_10 0cm 97% 10mph 19mph 1022mB
Afternoon 0.5625mm 0 4485m 20°C 20_9 0cm 0% 9mph 15mph 1019mB
Morning 0.0625mm 0 4553m 10°C 10_2 0cm 0% 2mph 2mph 1019mB
Afternoon 0.0208333mm 0 4676m 26°C 26_2 0cm 0% 2mph 3mph 1015mB
Morning 0.0208333mm 0.0625 4541m 15°C 15_4 0cm 65% 4mph 6mph 1014mB
Afternoon 0.0416667mm 1 4320m 29°C 29_2 0cm 48% 2mph 3mph 1010mB
Morning 3.27083mm 0 4641m 17°C 17_2 0cm 0% 2mph 3mph 1011mB
Afternoon 0.0208333mm 1.1875 4315m 30°C 30_4 0cm 41% 4mph 9mph 1008mB
Morning 0.104167mm 0.375 3867m 14°C 14_10 0cm 100% 10mph 23mph 1012mB
Afternoon 0.208333mm 0 4144m 23°C 23_13 0cm 60% 13mph 20mph 1012mB
Morning 0mm 0 4348m 13°C 13_7 0cm 59% 7mph 12mph 1015mB

16 day outlook at a glance

Forecast issued: 6/16/2019 2:37:15 PM

Chat

Your comments and questions. In a resort? Let us know what it's like!


Characters left 250

For terms and conditions see Readers Comments on the Cookie and privacy policy page.